Weather History for Bennington, VT

Change the Weather History Date:

Monday, July 21, 2014

  Actual Average Record
Temperature  
Mean Temperature 70 °F 68 °F  
Max Temperature 83 °F 80 °F 93 °F (2011)
Min Temperature 56 °F 57 °F 45 °F (2000)
Degree Days  
Heating Degree Days 0 1  
Month to date heating degree days 6 21  
Since 1 June heating degree days 53 118  
Since 1 July heating degree days 6 21  
Cooling Degree Days 5 4  
Month to date cooling degree days 95 83  
Year to date cooling degree days 173 155  
Since 1 June cooling degree days 157 141  
Growing Degree Days 18 (Base 50)    
Moisture  
Dew Point 60 °F    
Average Humidity 72    
Maximum Humidity 93    
Minimum Humidity 51    
Precipitation  
Precipitation T in 0.15 in 0.54 in (2010)
Month to date precipitation 4.65 2.91  
Year to date precipitation 20.81 22.11  
Sea Level Pressure  
Sea Level Pressure 30.16 in    
Wind  
Wind Speed 2 mph (SSE)    
Max Wind Speed 7 mph    
Max Gust Speed 11 mph    
Visibility 9 miles    
Events Rain    
T = Trace of Precipitation, MM = Missing Value Source: NWS Daily Summary

Daily Weather History Graph

Daily Weather History Graph

Search for Another Location

Airport:

Trip Planner

Search our weather history database for the weather conditions in past years. The results will help you decide how hot, cold, wet, or windy it might be!

Date:

Astronomy

Jul. 21, 2014 Rise Set
Actual Time 5:33 AM EDT 8:25 PM EDT
Civil Twilight 4:59 AM EDT 8:58 PM EDT
Nautical Twilight 4:17 AM EDT 9:40 PM EDT
Astronomical Twilight 3:28 AM EDT 10:29 PM EDT
Moon 1:24 AM EDT (7/21) 4:03 PM EDT (7/21)
Length of Visible Light 15h 58m
Length of Day
14h 51m
Waning Crescent, 24% of the Moon is Illuminated
Jul 21
Waning Crescent
Jul 26
New
Aug 3
First Quarter
Aug 10
Full
Aug 17
Last Quarter

Hourly Weather History & Observations

Time (EDT) Temp. Heat Index Dew Point Humidity Pressure Visibility Wind Dir Wind Speed Gust Speed Precip Events Conditions
12:54 AM 63.0 °F - 54.0 °F 72% 30.15 in 10.0 mi ESE 8.1 mph - N/A   Clear
1:54 AM 64.0 °F - 54.0 °F 70% 30.15 in 10.0 mi ESE 4.6 mph - N/A   Clear
2:54 AM 62.1 °F - 54.0 °F 75% 30.15 in 10.0 mi ESE 4.6 mph - N/A   Clear
3:54 AM 62.1 °F - 55.0 °F 78% 30.15 in 10.0 mi ESE 5.8 mph - N/A   Clear
4:54 AM 57.0 °F - 54.0 °F 89% 30.17 in 10.0 mi Calm Calm - N/A   Clear
5:54 AM 55.9 °F - 54.0 °F 93% 30.19 in 10.0 mi Calm Calm - N/A   Clear
6:54 AM 61.0 °F - 55.9 °F 83% 30.19 in 10.0 mi Calm Calm - N/A   Clear
7:54 AM 66.0 °F - 57.0 °F 73% 30.20 in 10.0 mi SE 3.5 mph - N/A   Partly Cloudy
8:54 AM 70.0 °F - 59.0 °F 68% 30.20 in 10.0 mi Calm Calm - N/A   Scattered Clouds
9:54 AM 73.9 °F - 59.0 °F 59% 30.20 in 10.0 mi Calm Calm - N/A   Mostly Cloudy
10:54 AM 75.9 °F - 60.1 °F 58% 30.20 in 10.0 mi Calm Calm - N/A   Partly Cloudy
11:54 AM 77.0 °F - 60.1 °F 56% 30.19 in 10.0 mi Calm Calm - N/A   Clear
12:54 PM 78.1 °F - 62.1 °F 58% 30.17 in 10.0 mi West 5.8 mph - N/A   Partly Cloudy
1:54 PM 80.1 °F 81.2 °F 62.1 °F 54% 30.17 in 10.0 mi Calm Calm - N/A   Mostly Cloudy
2:54 PM 80.1 °F 81.5 °F 63.0 °F 56% 30.15 in 10.0 mi Variable 4.6 mph - N/A   Mostly Cloudy
3:54 PM 80.1 °F 81.1 °F 61.0 °F 52% 30.14 in 10.0 mi West 3.5 mph - N/A   Clear
4:54 PM 79.0 °F - 62.1 °F 56% 30.14 in 10.0 mi West 4.6 mph - N/A   Partly Cloudy
5:54 PM 81.0 °F 81.6 °F 60.1 °F 49% 30.13 in 10.0 mi Calm Calm - N/A   Clear
6:54 PM 79.0 °F - 63.0 °F 58% 30.13 in 10.0 mi Calm Calm - N/A   Clear
7:54 PM 73.0 °F - 64.9 °F 76% 30.14 in 10.0 mi SSW 3.5 mph - N/A   Mostly Cloudy
8:51 PM 69.8 °F - 64.4 °F 83% 30.15 in 1.8 mi SE 3.5 mph - N/A   Clear
8:52 PM 69.1 °F - 64.9 °F 87% 30.14 in 1.8 mi SSE 3.5 mph - N/A   Clear
9:02 PM 68.0 °F - 64.0 °F 87% 30.16 in 2.5 mi SSE 3.5 mph - 0.00 in Rain Light Rain
9:17 PM 68.0 °F - 63.0 °F 84% 30.16 in 8.0 mi SSE 3.5 mph - 0.00 in   Clear
9:54 PM 68.0 °F - 63.0 °F 84% 30.15 in 10.0 mi ESE 3.5 mph - 0.00 in   Clear
10:54 PM 66.0 °F - 62.1 °F 87% 30.16 in 10.0 mi Calm Calm - N/A   Clear
11:54 PM 64.0 °F - 61.0 °F 90% 30.15 in 10.0 mi Calm Calm - N/A   Clear